This is the latest recevied weather packets stored in our database for station/object SQ2WB-13. If no packets are shown the sender has not sent any weather packets the latest 10 day(s).
| Time | Temp. | Humidity | Pressure | Rain* | Wind** | Luminosity | Snow |
|---|---|---|---|---|---|---|---|
| 1778104803 | 10° C | 90% | 998.9 hPa | 0 mm | - | - | - |
| 1778103902 | 10.56° C | 89% | 998.3 hPa | 0 mm | - | - | - |
| 1778103001 | 10.56° C | 90% | 998.3 hPa | 0 mm | - | - | - |
| 1778102102 | 10.56° C | 89% | 997.9 hPa | 0 mm | - | - | - |
| 1778101201 | 11.67° C | 89% | 997.9 hPa | 0 mm | - | - | - |
| 1778100301 | 11.67° C | 89% | 997.9 hPa | 0 mm | - | - | - |
| 1778099401 | 11.67° C | 89% | 997.6 hPa | 0 mm | - | - | - |
| 1778098501 | 12.78° C | 87% | 997.9 hPa | 0 mm | - | - | - |
| 1778097601 | 12.78° C | 87% | 997.9 hPa | 0 mm | - | - | - |
| 1778096701 | 12.78° C | 85% | 997.6 hPa | 0 mm | - | - | - |
| 1778095801 | 13.89° C | 85% | 997.6 hPa | 0 mm | - | - | - |
| 1778094901 | 13.89° C | 83% | 997.6 hPa | 0 mm | - | - | - |
| 1778094001 | 13.89° C | 81% | 997.2 hPa | 0 mm | - | - | - |
| 1778093101 | 15° C | 81% | 997.2 hPa | 0 mm | - | - | - |
| 1778092202 | 15° C | 79% | 997.2 hPa | 0 mm | - | - | - |
| 1778091302 | 15.56° C | 76% | 997.2 hPa | 0 mm | - | - | - |
| 1778090402 | 16.67° C | 75% | 996.9 hPa | 0 mm | - | - | - |
| 1778089502 | 17.78° C | 70% | 996.9 hPa | 0 mm | - | - | - |
| 1778088602 | 18.89° C | 67% | 996.6 hPa | 0 mm | - | - | - |
| 1778087701 | 20° C | 64% | 996.6 hPa | 0 mm | - | - | - |
| 1778086802 | 20° C | 63% | 996.2 hPa | 0 mm | - | - | - |
| 1778085901 | 20.56° C | 62% | 996.2 hPa | 0 mm | - | - | - |
| 1778085002 | 20.56° C | 61% | 996.2 hPa | 0 mm | - | - | - |
| 1778084101 | 20° C | 62% | 996.2 hPa | 0 mm | - | - | - |
| 1778083202 | 21.67° C | 59% | 996.2 hPa | 0 mm | - | - | - |
* Rain latest hour (hover to see other rain measurements)
** Current wind speed in m/s (hover to see current wind gust speed)